Flag for U.S.A. Weather past 2 weeks in Augusta, Georgia, U.S.A.

Now
86 °F

Passing clouds.


Feels Like: 92 °F
Forecast: 72 / 87 °F
Wind: 7 mph from Northeast

Location: Daniel Field

Current Time: Sep 5, 2015 at 12:22:53 PM

Latest Report: Sep 5, 2015 at 11:53 AM


Visibility: 10 mi

Pressure: 30.11 "Hg

Humidity: 61%

Dew point: 71 °F

Location of AugustaLocation

Historic Weather in Augusta — Graph

°F

Augusta temperature yesterday

Maximum temperature yesterday: 96 °F (at 3:53 PM)
Minimum temperature yesterday: 76 °F (at 6:53 AM)
Average temperature yesterday: 84 °F

Past Weeks' High & Low Weather Summary

 TemperatureHumidityPressure
High96 °F (Aug 30, 2:53 PM)97% (Aug 23, 5:53 AM)30.21 "Hg (Aug 23, 5:53 AM)
Low69 °F (Aug 26, 6:53 AM)36% (Aug 25, 4:53 PM)29.83 "Hg (Aug 25, 4:53 PM)
Average81 °F68%30.02 "Hg
* Reported Aug 21 10:53 AM — Sep 5 10:53 AM, Augusta, Weather by CustomWeather, © 2015

Note: Actual official high and low records may vary slightly from our data, if they occured in-between our weather recording intervals... More about our weather records

Advertising

Augusta weather history for previous 24 hours

 ConditionsComfort  
Time TempWeatherWind HumidityBarometerVisibility
10:53 AM
Sat, Sep 5
80 °FScattered clouds.10 mph69%30.11 "Hg10 mi
9:53 AM80 °FSunny.8 mph69%30.10 "Hg10 mi
8:53 AM75 °FSunny.5 mph76%30.09 "Hg10 mi
7:53 AM73 °FPassing clouds.3 mph79%30.08 "Hg10 mi
6:53 AM72 °FPassing clouds.5 mph84%30.06 "Hg10 mi
5:53 AM73 °FClear.7 mph84%30.03 "Hg10 mi
4:53 AM73 °FClear.5 mph84%30.01 "Hg10 mi
3:53 AM73 °FClear.8 mph84%30.03 "Hg10 mi
2:53 AM74 °FPassing clouds.9 mph85%30.03 "Hg10 mi
1:53 AM74 °FLight rain. Passing clouds.10 mph85%30.03 "Hg10 mi
12:53 AM78 °FPartly cloudy.8 mph74%30.05 "Hg10 mi
11:53 PM
Fri, Sep 4
78 °FPassing clouds.6 mph82%30.03 "Hg10 mi
10:53 PM79 °FClear.3 mph77%30.01 "Hg10 mi
9:53 PM81 °FClear.6 mph72%29.99 "Hg10 mi
8:53 PM83 °FClear.3 mph63%29.96 "Hg10 mi
7:53 PM83 °FSunny.No wind65%29.96 "Hg10 mi
6:53 PM87 °FSunny.6 mph57%29.95 "Hg10 mi
5:53 PM90 °FSunny.10 mph50%29.94 "Hg10 mi
4:53 PM95 °FSunny.9 mph39%29.92 "Hg10 mi
3:53 PM96 °FSunny.10 mph40%29.92 "Hg10 mi
2:53 PM95 °FSunny.8 mph41%29.95 "Hg10 mi
1:53 PM94 °FThundershowers. Sunny.9 mph44%29.96 "Hg10 mi
12:53 PM93 °FSunny.7 mph49%29.97 "Hg10 mi
Weather by CustomWeather, © 2015

See weather overviewHow to use our weather pages